[Iaude] MPEC A44: 2024 AU [a=1.26,e=0.16,i=12.6,H=24.1]

mpec at marsden.cfa.harvard.edu mpec at marsden.cfa.harvard.edu
Fri Jan 5 06:36:56 EST 2024


M.P.E.C. 2024-A44                               Issued 2024 January 5, 11:35 UT

     The Minor Planet Electronic Circulars contain information on unusual
         minor planets, routine data on comets and natural satellites,
         and occasional editorial announcements.  They are published
    on behalf of Division F of the International Astronomical Union by the
          Minor Planet Center, Smithsonian Astrophysical Observatory,
                          Cambridge, MA 02138, U.S.A.
			  
             Prepared using the Tamkin Foundation Computer Network

                              MPC at CFA.HARVARD.EDU
            URL https://www.minorplanetcenter.net/    ISSN 1523-6714

                                    2024 AU                                     


Observations:
     K24A00U* C2024 01 03.28976305 31 48.788+12 30 43.68         20.88wXEA044F52
     K24A00U  C2024 01 03.30150505 31 48.711+12 29 49.33         21.11wXEA044F52
     K24A00U  C2024 01 03.31320605 31 48.637+12 28 54.93         21.23wXEA044F52
     K24A00U  C2024 01 03.32496605 31 48.558+12 28 00.74         21.02wXEA044F52
     K24A00U  C2024 01 03.37993705 31 48.065+12 23 45.28         21.01GVEA044F52
     K24A00U  C2024 01 03.38058005 31 48.067+12 23 42.31         21.31GVEA044F52
     K24A00U  C2024 01 03.41899805 31 45.517+12 20 23.60         20.5 GVEA044H01
     K24A00U  C2024 01 03.42244705 31 45.548+12 20 07.47         20.7 GVEA044H01
     K24A00U  C2024 01 03.42873105 31 45.593+12 19 38.00         20.7 GVEA044H01
     K24A00U  C2024 01 03.43448405 31 45.638+12 19 10.93         20.4 GVEA044H01
     K24A00U KB2024 01 04.14921 05 32 02.13 +11 25 01.0          21.3 GXEA044H36
     K24A00U |C2024 01 04.15394005 32 00.670+11 25 48.80         20.9 GVEA044807
     K24A00U |C2024 01 04.15875005 32 00.630+11 25 27.60         21.0 GVEA044807
     K24A00U |C2024 01 04.16340005 32 00.630+11 25 06.70         21.0 GVEA044807
     K24A00U KB2024 01 04.17520 05 32 02.04 +11 23 05.3          21.0 GXEA044H36
     K24A00U KC2024 01 05.17035005 32 20.10 +10 11 09.4          21.4 GVEA044H21
     K24A00U KC2024 01 05.18355605 32 20.09 +10 10 13.5          21.0 GVEA044H21

Observer details:
807 Cerro Tololo Observatory, La Serena.  Observers T. Linder, R. Holmes.
    0.61-m f/11 Ritchey-Chretien + CCD.
F52 Pan-STARRS 2, Haleakala.  Observers J. Herman, T. Lowe, P. Minguez, A.
    Schultz, I. Smith.  Measurers K. Chambers, T. de Boer, J. Fairlamb, H.
    Gao, M. Huber, C.-C. Lin, E. Magnier, Y. Ramanjooloo, R. Wainscoat, R.
    Weryk.  1.8-m Ritchey-Chretien + CCD.
H01 Magdalena Ridge Observatory, Socorro.  Observers W. H. Ryan, E. V. Ryan.
    Measurer W. H. Ryan.  2.4-m f/8.9 Ritchey-Chretien + CCD.
H21 Astronomical Research Observatory, Westfield.  Observer R. Holmes.
    Measurers T. Linder, R. Holmes, L. Horn.  0.81-m f/4.0 astrograph + CCD.
H36 Sandlot Observatory, Scranton.  Observer G. Hug.  0.56-m f/4.8 reflector +
    CMO.

Orbital elements:
2024 AU                                                  Earth MOID = 0.1073 AU
Epoch 2023 Sept. 13.0 TT = JDT 2460200.5                Veres                   
M 319.12046              (2000.0)            P               Q                  
n   0.69342440     Peri.  136.01040     +0.63029158     -0.74536223             
a   1.2641637      Node   273.68100     +0.63854085     +0.65682168             
e   0.1621267      Incl.   12.56988     +0.44158590     +0.11410706             
P   1.42           H   24.19          G   0.15           U   8                  
Residuals in seconds of arc
240103 F52  0.0   0.0     240103 H01  0.1-  0.1-    240104 807  0.3-  0.2+
240103 F52  0.1-  0.0     240103 H01  0.0   0.0     240104 807  0.0   0.1+
240103 F52  0.0   0.2-    240103 H01  0.1+  0.1+    240104 H36  0.3-  0.1-
240103 F52  0.2+  0.2+    240103 H01  0.1+  0.0     240105 H21  0.1+  0.1+
240103 F52  0.0   0.1+    240104 H36  0.3+  0.1+    240105 H21  0.0   0.1-
240103 F52  0.1+  0.1+    240104 807  0.1-  0.1-

Ephemeris:
2024 AU                  a,e,i = 1.26, 0.16, 13                  q = 1.0592
Date    TT    R. A. (2000) Decl.     Delta      r    Elong.  Phase     V
2023 12 06    05 37 20.4 +65 51 53   0.1169  1.0723   135.8    39.9    21.3
...
2023 12 21    05 31 17.0 +35 42 20   0.1107  1.0918   166.8    11.9    20.3
...
2023 12 29    05 30 51.4 +20 21 56   0.1251  1.1052   166.2    12.2    20.6
...
2024 01 04    05 31 58.3 +11 36 42   0.1430  1.1165   157.2    20.0    21.2
2024 01 05    05 32 16.5 +10 23 44   0.1464  1.1184   155.7    21.2    21.3
2024 01 06    05 32 36.7 +09 14 42   0.1500  1.1204   154.3    22.4    21.4
...
2024 01 12    05 35 21.0 +03 35 57   0.1738  1.1328   146.7    28.5    21.9
...
2024 01 20    05 40 57.1 -01 14 30   0.2103  1.1503   138.7    34.4    22.5
...
2024 02 04    05 56 40.4 -05 17 00   0.2886  1.1858   128.1    40.8    23.5

M. P. C. Staff               (C) Copyright 2024 MPC           M.P.E.C. 2024-A44





More information about the Iaude mailing list